Home > Weather > Denver > Past weeks

Flag for USA Past Weather in Denver, Colorado, USA — Yesterday and Last 2 Weeks

Now
59 °F

Passing clouds.


Feels Like: 57 °F
Forecast: 62 / 91 °F
Wind: 12 mph from South

Location: Buckley Air Force Base

Current Time: Jul 25, 2016 at 2:19:14 AM

Latest Report: Jul 25, 2016 at 1:58 AM


Visibility: 9 mi

Pressure: 30.02 "Hg (24.86 "Hg at 1593m altitude)

Humidity: 86%

Dew Point: 55 °F

Location of DenverLocation

Past Weather in Denver — Graph

°F

Denver Temperature Yesterday

Maximum temperature yesterday: 92 °F (at 1:58 PM)
Minimum temperature yesterday: 62 °F (at 11:58 PM)
Average temperature yesterday: 76 °F

High & Low Weather Summary for the Past Weeks

 TemperatureHumidityPressure
High99 °F (Jul 10, 4:58 PM)91% (Jul 15, 11:58 PM)30.21 "Hg (Jul 15, 11:58 PM)
Low56 °F (Jul 14, 5:58 AM)7% (Jul 10, 3:58 PM)29.46 "Hg (Jul 10, 5:58 PM)
Average76 °F42%29.89 "Hg
* Reported Jul 10 12:58 AM — Jul 25 12:58 AM, Denver, Weather by CustomWeather, © 2016

Note: Actual official high and low records may vary slightly from our data, if they occured in-between our weather recording intervals... More about our weather records

Advertising

Denver Weather History for the Previous 24 Hours

Scroll right to see more
 ConditionsComfort  
Time TempWeatherWind HumidityBarometerVisibility
12:58 AM
Mon, Jul 25
60 °FPassing clouds.9 mph85%30.03 "Hg10 mi
11:58 PM
Sun, Jul 24
62 °FPassing clouds.8 mph81%30.06 "Hg10 mi
10:58 PM63 °FPassing clouds.21 mph77%30.04 "Hg10 mi
9:58 PM65 °FPassing clouds.23 mph69%30.04 "Hg10 mi
8:58 PM69 °FScattered clouds.23 mph60%30.01 "Hg10 mi
7:58 PM71 °FScattered clouds.15 mph59%29.98 "Hg10 mi
6:58 PM75 °FBroken clouds.17 mph47%29.98 "Hg10 mi
5:58 PM71 °FThundershowers. Scattered clouds.17 mph61%29.95 "Hg10 mi
4:58 PM90 °FScattered clouds.14 mph18%29.88 "Hg10 mi
3:58 PM90 °FBroken clouds.17 mph16%29.87 "Hg10 mi
2:58 PM92 °FBroken clouds.5 mph14%29.86 "Hg10 mi
1:58 PM92 °FScattered clouds.7 mph14%29.88 "Hg10 mi
12:58 PM91 °FScattered clouds.2 mph15%29.90 "Hg10 mi
11:58 AM89 °FScattered clouds.8 mph18%29.92 "Hg10 mi
10:58 AM86 °FScattered clouds.3 mph22%29.94 "Hg10 mi
9:58 AM83 °FScattered clouds.10 mph26%29.96 "Hg10 mi
8:58 AM77 °FBroken clouds.8 mph36%29.95 "Hg10 mi
7:58 AM70 °FBroken clouds.13 mph48%29.94 "Hg10 mi
6:58 AM67 °FBroken clouds.6 mph57%29.95 "Hg10 mi
5:58 AM65 °FPartly cloudy.5 mph60%29.96 "Hg10 mi
4:58 AM69 °FPassing clouds.13 mph51%29.92 "Hg10 mi
3:58 AM68 °FPassing clouds.13 mph53%29.90 "Hg10 mi
2:58 AM69 °FPassing clouds.14 mph52%29.91 "Hg10 mi
Weather by CustomWeather, © 2016

See weather overviewHow to use our weather pages